Burlington, NC

1:21 AM EST on December 09, 2016 (GMT -0500)
Burlington-Alamance Regional

Weather History for KBUY - October, 2013

Change the Weather History Date:

Monday, October 7, 2013

  Actual Average Record
Temperature  
Mean Temperature 68 °F -  
Max Temperature 73 °F 75 °F 91 °F (1954)
Min Temperature 63 °F 49 °F 34 °F (1988)
Cooling Degree Days 4    
Growing Degree Days 18 (Base 50)    
Moisture  
Dew Point 65 °F    
Average Humidity 84    
Maximum Humidity 94    
Minimum Humidity 60    
Precipitation  
Precipitation 0.68 in - - ()
Sea Level Pressure  
Sea Level Pressure 29.90 in    
Wind  
Wind Speed 6 mph (South)    
Max Wind Speed 12 mph    
Max Gust Speed 20 mph    
Visibility 8 miles    
Events Fog , Rain    
Averages and records for this station are not official NWS values.
T = Trace of Precipitation, MM = Missing Value Source: NWS Daily Summary

Daily Weather History Graph

Daily Weather History Graph

Search for Another Location

Airport or City:

Trip Planner

Search our weather history database for the weather conditions in past years. The results will help you decide how hot, cold, wet, or windy it might be!

Date:

Astronomy

Oct. 07, 2013 Rise Set
Actual Time 7:18 AM EDT 6:52 PM EDT
Civil Twilight 6:52 AM EDT 7:18 PM EDT
Nautical Twilight 6:22 AM EDT 7:47 PM EDT
Astronomical Twilight 5:52 AM EDT 8:17 PM EDT
Moon 10:00 AM EDT (10/7) 8:42 PM EDT (10/7)
Length of Visible Light 12h 25m
Length of Day
11h 34m
Waxing Crescent, 8% of the Moon is Illuminated
Oct 7
Waxing Crescent
Oct 11
First Quarter
Oct 18
Full
Oct 26
Last Quarter
Nov 3
New

Hourly Weather History & Observations

Time (EDT) Temp. Dew Point Humidity Pressure Visibility Wind Dir Wind Speed Gust Speed Precip Events Conditions
12:54 AM 73.0 °F 68.0 °F 84% 29.91 in 10.0 mi SSE 6.9 mph - N/A   Overcast
1:21 AM 73.4 °F 66.2 °F 78% 29.93 in 10.0 mi SSE 6.9 mph - N/A   Overcast
1:50 AM 73.4 °F 66.2 °F 78% 29.92 in 10.0 mi SSE 5.8 mph - N/A   Overcast
1:54 AM 72.0 °F 66.9 °F 84% 29.90 in 10.0 mi SSE 3.5 mph - N/A   Overcast
2:08 AM 71.6 °F 66.2 °F 83% 29.91 in 10.0 mi SE 3.5 mph - N/A   Overcast
2:54 AM 72.0 °F 66.9 °F 84% 29.88 in 10.0 mi SE 8.1 mph - N/A   Overcast
3:54 AM 72.0 °F 66.9 °F 84% 29.86 in 10.0 mi South 4.6 mph - N/A   Overcast
4:54 AM 72.0 °F 66.9 °F 84% 29.86 in 10.0 mi South 6.9 mph - N/A   Overcast
5:54 AM 72.0 °F 66.9 °F 84% 29.84 in 10.0 mi South 5.8 mph - N/A   Overcast
6:54 AM 71.1 °F 68.0 °F 90% 29.83 in 10.0 mi SSE 8.1 mph - 0.01 in   Overcast
7:54 AM 72.0 °F 68.0 °F 87% 29.85 in 9.0 mi South 8.1 mph - 0.00 in Rain Light Rain
8:54 AM 72.0 °F 68.0 °F 87% 29.86 in 10.0 mi South 8.1 mph 17.3 mph 0.01 in   Overcast
9:11 AM 71.6 °F 68.0 °F 88% 29.89 in 1.8 mi South 10.4 mph 18.4 mph 0.08 in Rain Rain
9:22 AM 71.6 °F 68.0 °F 88% 29.89 in 3.0 mi South 8.1 mph - 0.10 in Rain Light Rain
9:31 AM 71.6 °F 68.0 °F 88% 29.89 in 7.0 mi South 6.9 mph 16.1 mph 0.10 in Rain Light Rain
9:38 AM 71.6 °F 68.0 °F 88% 29.89 in 9.0 mi South 8.1 mph - 0.11 in Rain Light Rain
9:54 AM 72.0 °F 68.0 °F 87% 29.88 in 10.0 mi South 10.4 mph - 0.11 in Rain Light Rain
10:19 AM 69.8 °F 64.4 °F 83% 29.90 in 4.0 mi WNW 11.5 mph 16.1 mph 0.01 in Rain Light Rain
10:32 AM 68.0 °F 64.4 °F 88% 29.91 in 1.8 mi WSW 9.2 mph - 0.08 in Rain Light Rain
10:36 AM 68.0 °F 64.4 °F 88% 29.91 in 0.5 mi SW 11.5 mph 19.6 mph 0.22 in Fog , Rain Heavy Rain
10:47 AM 68.0 °F 66.2 °F 94% 29.90 in 1.0 mi Variable 5.8 mph - 0.32 in Rain Heavy Rain
10:54 AM 68.0 °F 64.9 °F 90% 29.88 in 1.0 mi South 6.9 mph - 0.39 in Rain Heavy Rain
11:03 AM 68.0 °F 64.4 °F 88% 29.89 in 3.0 mi SSW 4.6 mph - 0.01 in Rain Light Rain
11:32 AM 69.8 °F 66.2 °F 88% 29.89 in 10.0 mi SSE 3.5 mph - 0.04 in   Overcast
11:54 AM 70.0 °F 66.0 °F 87% 29.87 in 10.0 mi SSE 3.5 mph - 0.04 in   Mostly Cloudy
12:54 PM 68.0 °F 64.9 °F 90% 29.88 in 5.0 mi Calm Calm - 0.10 in Rain Rain
1:43 PM 69.8 °F 66.2 °F 88% 29.88 in 10.0 mi WSW 4.6 mph - 0.01 in   Partly Cloudy
1:54 PM 70.0 °F 66.9 °F 90% 29.87 in 10.0 mi SSW 3.5 mph - 0.01 in   Partly Cloudy
2:07 PM 69.8 °F 66.2 °F 88% 29.88 in 10.0 mi Calm Calm - N/A   Mostly Cloudy
2:45 PM 71.6 °F 66.2 °F 83% 29.88 in 10.0 mi Calm Calm - N/A   Overcast
2:54 PM 71.1 °F 68.0 °F 90% 29.87 in 10.0 mi ESE 3.5 mph - N/A   Overcast
3:07 PM 71.6 °F 68.0 °F 88% 29.88 in 10.0 mi South 3.5 mph - N/A   Overcast
3:19 PM 71.6 °F 68.0 °F 88% 29.88 in 10.0 mi South 3.5 mph - N/A   Overcast
3:47 PM 73.4 °F 66.2 °F 78% 29.88 in 10.0 mi South 3.5 mph - N/A   Overcast
3:54 PM 73.0 °F 66.9 °F 81% 29.86 in 10.0 mi Calm Calm - N/A   Overcast
4:54 PM 73.0 °F 66.9 °F 81% 29.86 in 10.0 mi Calm Calm - N/A   Overcast
5:54 PM 71.1 °F 66.9 °F 87% 29.88 in 10.0 mi North 5.8 mph - 0.01 in   Overcast
6:54 PM 69.1 °F 64.0 °F 84% 29.90 in 10.0 mi North 6.9 mph - N/A   Overcast
7:15 PM 68.0 °F 60.8 °F 78% 29.93 in 10.0 mi NNW 8.1 mph - N/A   Overcast
7:27 PM 68.0 °F 59.0 °F 73% 29.93 in 10.0 mi North 4.6 mph - N/A   Overcast
7:54 PM 66.9 °F 59.0 °F 76% 29.93 in 10.0 mi North 4.6 mph - N/A   Overcast
8:54 PM 66.0 °F 57.0 °F 73% 29.95 in 10.0 mi NNE 4.6 mph - N/A   Overcast
9:54 PM 66.0 °F 55.0 °F 68% 29.98 in 10.0 mi North 6.9 mph - N/A   Overcast
10:54 PM 64.0 °F 52.0 °F 65% 30.01 in 10.0 mi North 8.1 mph - N/A   Overcast
11:54 PM 63.0 °F 48.9 °F 60% 30.01 in 10.0 mi North 8.1 mph - N/A   Overcast